SCP
0 0 0 0 0 0 0 0 0 0 0 0 0 0 0 0 0 0 0 0 0 0 0 0 0 0 0 0 0 0 0 0 0 0 0 0 0 0 0 0 0 0 0 0 0 0 0 0 0 0 0 0 0 0
0 0 0 0 0 0 0 0 0 0 0 0 0 0 0 0 0 0 0 0 0 0 0 0 0 0 0 0 0 0 0 0 0 0 0 0 0 0 0 0 0 0 0 0 0 0 0 0 0 0 0 0 0 0
0 0 0 0 0 0 0 0 0 0 0 0 0 0 0 0 0 0 0 0 0 0 0 0 0 0 0 0 0 0 0 0 0 0 0 0 0 0 0 0 0 0 0 0 0 0 0 0 0 0 0 0 0 0
0 0 0 0 0 0 0 0 0 0 0 0 0 0 0 0 0 0 0 0 0 0 0 0 0 0 0 0 0 0 0 0 0 0 0 0 0 0 0 0 0 0 0 0 0 0 0 0 0 0 0 0 0 0
0 0 0 0 0 0 0 0 0 0 0 0 0 0 0 0 0 0 0 0 0 0 0 0 0 0 0 0 0 0 0 0 0 0 0 0 0 0 0 0 0 0 0 0 0 0 0 0 0 0 0 0 0 0
0 0 0 0 0 0 0 0 0 0 0 0 0 0 0 0 0 0 0 0 0 0 0 0 0 0 0 0 0 0 0 0 0 0 0 0 0 0 0 0 0 0 0 0 0 0 0 0 0 0 0 0 0 0
0 0 0 0 0 0 0 0 0 0 0 0 0 0 0 0 0 0 0 0 0 0 0 0 0 0 0 0 0 0 0 0 0 0 0 0 0 0 0 0 0 0 0 0 0 0 0 0 0 0 0 0 0 0
0 0 0 0 0 0 0 0 0 0 0 0 0 0 0 0 0 0 0 0 0 0 0 0 0 0 0 0 0 0 0 0 0 0 0 0 0 0 0 0 0 0 0 0 0 0 0 0 0 0 0 0 0 0
0 0 0 0 0 0 0 0 0 0 0 0 0 0 0 0 0 0 0 0 0 0 0 0 0 0 0 0 0 0 0 0 0 0 0 0 0 0 0 0 0 0 0 0 0 0 0 0 0 0 0 0 0 0
0 0 0 0 0 0 0 0 0 0 0 0 0 0 0 0 0 0 0 0 0 0 0 0 0 0 0 0 0 0 0 0 0 0 0 0 0 0 0 0 0 0 0 0 0 0 0 0 0 0 0 0 0 0
0 0 0 0 0 0 0 0 0 0 0 0 0 0 0 0 0 0 0 0 0 0 0 0 0 0 0 0 0 0 0 0 0 0 0 0 0 0 0 0 0 0 0 0 0 0 0 0 0 0 0 0 0 0
0 0 0 0 0 0 0 0 0 0 0 0 0 0 0 0 0 0 0 0 0 0 0 0 0 0 0 0 0 0 0 0 0 0 0 0 0 0 0 0 0 0 0 0 0 0 0 0 0 0 0 0 0 0
0 0 0 0 0 0 0 0 0 0 0 0 0 0 0 0 0 0 0 0 0 0 0 0 0 0 0 0 0 0 0 0 0 0 0 0 0 0 0 0 0 0 0 0 0 0 0 0 0 0 0 0 0 0
0 0 0 0 0 0 0 0 0 0 0 0 0 0 0 0 0 0 0 0 0 0 0 0 0 0 0 0 0 0 0 0 0 0 0 0 0 0 0 0 0 0 0 0 0 0 0 0 0 0 0 0 0 0
0 0 0 0 0 0 0 0 0 0 0 0 0 0 0 0 0 0 0 0 0 0 0 0 0 0 0 0 0 0 0 0 0 0 0 0 0 0 0 0 0 0 0 0 0 0 0 0 0 0 0 0 0 0
0 0 0 0 0 0 0 0 0 0 0 0 0 0 0 0 0 0 0 0 0 0 0 0 0 0 0 0 0 0 0 0 0 0 0 0 0 0 0 0 0 0 0 0 0 0 0 0 0 0 0 0 0 0
0 0 0 0 0 0 0 0 0 0 0 0 0 0 0 0 0 0 0 0 0 0 0 0 0 0 0 0 0 0 0 0 0 0 0 0 0 0 0 0 0 0 0 0 0 0 0 0 0 0 0 0 0 0
0 0 0 0 0 0 0 0 0 0 0 0 0 0 0 0 0 0 0 0 0 0 0 0 0 0 0 0 0 0 0 0 0 0 0 0 0 0 0 0 0 0 0 0 0 0 0 0 0 0 0 0 0 0
0 0 0 0 0 0 0 0 0 0 0 0 0 0 0 0 0 0 0 0 0 0 0 0 0 0 0 0 0 0 0 0 0 0 0 0 0 0 0 0 0 0 0 0 0 0 0 0 0 0 0 0 0 0
0 0 0 0 0 0 0 0 0 0 0 0 0 0 0 0 0 0 0 0 0 0 0 0 0 0 0 0 0 0 0 0 0 0 0 0 0 0 0 0 0 0 0 0 0 0 0 0 0 0 0 0 0 0
0 0 0 0 0 0 0 0 0 0 0 0 0 0 0 0 0 0 0 0 0 0 0 0 0 0 0 0 0 0 0 0 0 0 0 0 0 0 0 0 0 0 0 0 0 0 0 0 0 0 0 0 0 0
0 0 0 0 0 0 0 0 0 0 0 0 0 0 0 0 0 0 0 0 0 0 0 0 0 0 0 0 0 0 0 0 0 0 0 0 0 0 0 0 0 0 0 0 0 0 0 0 0 0 0 0 0 0
0 0 0 0 0 0 0 0 0 0 0 0 0 0 0 0 0 0 0 0 0 0 0 0 0 0 0 0 0 0 0 0 0 0 0 0 0 0 0 0 0 0 0 0 0 0 0 0 0 0 0 0 0 0
0 0 0 0 0 0 0 0 0 0 0 0 0 0 0 0 0 0 0 0 0 0 0 0 0 0 0 0 0 0 0 0 0 0 0 0 0 0 0 0 0 0 0 0 0 0 0 0 0 0 0 0 0 0
0 0 0 0 0 0 0 0 0 0 0 0 0 0 0 0 0 0 0 0 0 0 0 0 0 0 0 0 0 0 0 0 0 0 0 0 0 0 0 0 0 0 0 0 0 0 0 0 0 0 0 0 0 0
0 0 0 0 0 0 0 0 0 0 0 0 0 0 0 0 0 0 0 0 0 0 0 0 0 0 0 0 0 0 0 0 0 0 0 0 0 0 0 0 0 0 0 0 0 0 0 0 0 0 0 0 0 0
0 0 0 0 0 0 0 0 0 0 0 0 0 0 0 0 0 0 0 0 0 0 0 0 0 0 0 0 0 0 0 0 0 0 0 0 0 0 0 0 0 0 0 0 0 0 0 0 0 0 0 0 0 0
0 0 0 0 0 0 0 0 0 0 0 0 0 0 0 0 0 0 0 0 0 0 0 0 0 0 0 0 0 0 0 0 0 0 0 0 0 0 0 0 0 0 0 0 0 0 0 0 0 0 0 0 0 0
0 0 0 0 0 0 0 0 0 0 0 0 0 0 0 0 0 0 0 0 0 0 0 0 0 0 0 0 0 0 0 0 0 0 0 0 0 0 0 0 0 0 0 0 0 0 0 0 0 0 0 0 0 0
0 0 0 0 0 0 0 0 0 0 0 0 0 0 0 0 0 0 0 0 0 0 0 0 0 0 0 0 0 0 0 0 0 0 0 0 0 0 0 0 0 0 0 0 0 0 0 0 0 0 0 0 0 0
0 0 0 0 0 0 0 0 0 0 0 0 0 0 0 0 0 0 0 0 0 0 0 0 0 0 0 0 0 0 0 0 0 0 0 0 0 0 0 0 0 0 0 0 0 0 0 0 0 0 0 0 0 0
0 0 0 0 0 0 0 0 0 0 0 0 0 0 0 0 0 0 0 0 0 0 0 0 0 0 0 0 0 0 0 0 0 0 0 0 0 0 0 0 0 0 0 0 0 0 0 0 0 0 0 0 0 0
0 0 0 0 0 0 0 0 0 0 0 0 0 0 0 0 0 0 0 0 0 0 0 0 0 0 0 0 0 0 0 0 0 0 0 0 0 0 0 0 0 0 0 0 0 0 0 0 0 0 0 0 0 0
Wind_Speed_500mb
99 89 79 71 62 62 62 60 56 52 47 42 37 32 29 25 24 24 22 25 25 12 20 23 20 13 16 15 9 19 10 4 5 5 7 6 6 8 2 6 10 13 13 9 4 2 16 22 5 6 11 30 39 44
116 95 85 75 68 63 64 64 60 55 50 44 39 34 30 28 26 25 24 24 25 15 9 22 23 23 22 17 14 31 5 10 18 8 1 6 3 2 5 7 6 5 12 8 17 8 9 29 27 20 28 32 37 52
123 105 91 79 72 66 65 68 64 59 52 46 41 35 32 29 27 26 24 23 24 16 9 16 16 22 22 22 24 12 12 15 14 11 14 5 6 8 6 11 3 8 10 5 5 6 16 22 26 38 46 50 58 63
120 112 99 86 79 70 67 73 69 62 55 49 42 37 33 29 26 25 25 25 26 10 9 10 18 15 19 23 24 27 17 16 13 15 8 5 4 18 5 3 6 5 11 6 8 5 4 17 41 49 55 60 64 68
121 119 104 90 81 72 68 76 71 64 58 51 43 36 30 27 23 23 23 24 27 17 8 14 18 15 15 16 17 20 19 19 14 8 6 5 6 8 1 2 6 9 6 4 4 2 4 25 40 47 56 64 70 76
118 121 109 96 86 78 70 78 75 67 60 51 42 35 30 26 22 20 13 19 22 22 6 4 9 9 9 10 13 15 18 18 14 8 7 8 8 7 4 6 2 11 15 13 4 20 28 37 42 56 64 73 75 76
120 129 112 103 92 82 72 79 78 68 59 51 43 37 32 28 26 19 8 16 21 20 11 11 6 10 14 12 11 11 16 11 11 7 6 4 5 9 3 5 12 19 13 10 17 33 37 38 60 63 64 68 67 71
130 130 120 108 99 86 75 81 79 69 59 51 41 35 29 23 20 18 16 17 15 9 7 9 2 6 12 7 6 9 10 12 8 3 4 2 4 7 7 9 17 13 4 13 25 34 43 52 56 61 63 71 74 76
119 137 128 116 102 89 78 82 77 68 60 51 45 31 22 15 14 17 16 11 14 9 8 7 9 7 13 8 7 6 7 2 3 4 2 3 3 8 8 23 11 5 11 26 35 42 46 51 60 61 65 70 69 73
133 136 119 120 106 89 81 83 77 68 63 54 44 18 12 14 19 16 9 7 5 4 4 6 10 3 8 10 6 6 4 2 3 4 7 3 6 5 26 16 16 17 24 31 40 48 55 55 57 56 62 67 66 69
136 136 127 123 106 95 93 91 84 77 65 55 22 12 24 27 11 7 5 4 2 3 4 7 8 11 7 5 7 3 6 0 3 6 4 3 6 13 11 16 24 28 29 35 37 42 43 46 57 61 64 65 65 66
141 137 130 126 107 99 102 98 94 88 57 40 22 39 28 9 5 6 2 3 1 8 12 10 11 10 10 6 5 4 6 4 6 7 5 6 6 29 12 24 35 41 42 45 45 46 46 50 58 65 68 74 74 74
145 136 140 126 112 111 107 101 89 75 61 50 14 12 12 6 5 15 13 7 2 19 22 19 11 9 9 5 11 4 5 5 2 5 6 6 23 12 37 43 48 52 53 54 53 49 53 57 65 70 75 79 79 78
148 136 134 126 118 120 111 100 81 73 52 14 15 8 9 6 11 9 8 9 14 19 41 30 18 8 8 8 3 6 1 3 4 3 9 6 13 38 51 57 58 63 62 59 58 56 59 66 75 79 82 84 83 83
141 135 131 120 127 119 108 88 81 75 22 13 16 13 11 12 8 21 27 28 27 50 40 23 16 7 8 7 4 6 2 6 9 7 5 14 36 42 49 55 61 66 66 62 58 62 67 79 83 88 91 90 84 77
153 137 126 130 126 114 101 93 89 44 23 13 13 11 19 15 12 26 29 45 58 47 27 11 9 7 1 5 5 11 9 11 6 9 17 34 44 48 54 59 63 63 61 64 68 69 78 84 84 90 93 86 79 78
161 118 144 133 122 114 103 88 54 14 16 11 9 17 24 12 28 35 49 49 57 38 7 10 8 9 12 5 5 8 10 6 6 21 25 33 39 45 47 51 55 62 69 72 71 84 87 85 87 87 85 82 79 76
110 145 143 140 136 118 87 52 18 12 9 9 13 30 24 20 45 50 46 63 39 20 19 8 18 6 9 10 7 10 21 17 32 31 29 28 34 41 50 56 63 67 71 76 80 81 83 82 81 81 79 77 76 80
153 158 152 144 120 84 20 11 12 11 6 13 23 37 20 34 49 53 57 59 30 30 24 17 9 6 7 16 14 23 29 39 40 34 30 35 43 53 59 57 60 68 75 77 76 75 73 74 76 73 70 68 75 80
164 158 152 116 97 32 15 13 17 9 11 14 27 30 28 27 45 50 61 43 43 21 9 7 14 13 14 21 32 39 42 41 42 48 53 54 51 60 64 61 66 74 73 70 71 72 76 76 70 69 69 68 71 76
156 148 125 113 55 25 16 15 11 12 24 14 37 25 21 40 36 38 37 43 13 12 12 21 29 23 20 36 38 40 41 40 44 47 53 52 52 64 63 64 70 63 68 72 74 74 69 68 69 69 70 70 70 69
126 136 110 67 18 14 16 11 20 22 10 23 21 15 21 14 16 20 29 13 12 20 26 32 32 19 16 26 32 36 37 39 35 41 47 50 59 63 67 66 63 69 68 65 65 66 67 66 68 69 70 70 69 69
121 96 33 16 14 12 12 14 9 8 9 13 14 10 8 9 16 31 13 13 21 42 44 40 33 29 22 28 36 39 41 40 47 51 52 54 57 62 61 56 61 63 65 61 60 62 65 66 67 69 70 71 75 77
77 20 12 11 12 9 14 6 9 13 12 6 5 8 4 10 22 8 5 13 39 34 33 32 27 32 37 39 41 40 45 51 54 53 49 53 61 53 53 55 50 46 50 55 58 62 63 66 68 72 73 75 75 76
22 8 14 11 10 13 8 5 6 8 6 4 8 5 7 10 5 2 6 14 27 29 26 26 29 31 44 49 49 49 51 50 51 51 49 53 50 52 51 46 40 39 44 49 53 59 62 66 68 70 73 73 74 75
13 6 7 12 10 9 10 10 9 10 8 6 5 12 8 7 6 9 9 16 19 20 22 31 28 30 39 47 54 53 54 50 48 50 48 41 46 47 48 47 45 40 45 47 52 57 60 63 66 69 71 71 72 75
10 4 8 12 18 25 15 16 12 11 7 10 9 9 6 7 11 12 16 20 22 19 19 24 29 34 41 45 50 52 50 45 46 39 38 41 39 38 38 40 40 41 45 46 48 52 59 63 66 68 71 72 72 73
10 14 13 18 17 11 12 8 8 9 9 22 29 8 20 18 12 11 14 16 15 23 29 35 38 43 49 51 49 42 42 37 30 37 39 36 29 31 32 35 40 43 46 48 51 54 56 60 64 67 70 74 75 71
10 30 26 14 13 8 8 10 14 10 28 39 17 8 15 15 17 16 18 17 21 29 39 50 53 51 46 37 32 27 23 26 37 39 37 36 31 29 36 40 45 48 52 57 56 56 59 64 67 70 70 72 73 72
11 16 14 8 7 4 6 13 16 33 30 30 18 11 14 20 23 29 30 36 44 56 55 50 43 34 25 19 15 15 25 34 33 32 37 40 42 43 46 50 53 56 59 62 65 68 67 68 70 71 73 74 75 76
27 11 11 8 7 6 17 19 21 25 24 23 24 22 29 31 37 41 44 52 52 40 30 23 19 15 12 12 14 27 28 27 27 32 37 42 46 50 53 57 60 63 63 64 68 70 71 72 73 75 75 74 74 73
9 7 13 7 6 17 22 14 14 10 11 12 10 18 20 17 15 28 36 29 26 22 20 18 16 13 13 14 28 32 28 30 31 35 42 48 52 54 58 60 59 59 61 63 67 69 70 70 70 70 72 73 73 71
10 13 14 12 9 8 11 11 8 5 7 6 8 10 15 8 12 16 28 27 21 19 18 16 16 13 13 23 28 27 31 33 38 42 47 52 56 58 60 60 59 60 64 66 67 67 66 65 67 68 68 68 67 66
Wind_Direction_500mb
231 234 230 228 228 228 224 222 220 219 220 221 222 226 225 231 230 227 226 222 212 214 191 200 199 186 173 182 151 156 113 210 69 111 136 215 165 223 44 217 187 173 159 207 128 234 278 352 41 90 347 348 347 342
230 226 225 225 228 227 222 220 217 215 217 218 219 223 225 225 229 228 222 215 210 208 190 209 215 217 218 203 198 177 212 169 173 90 43 102 211 103 157 260 320 283 201 181 186 216 41 67 85 27 1 340 331 329
229 224 220 222 226 227 220 215 212 213 215 216 218 221 226 226 231 231 229 213 197 202 196 195 207 217 220 218 213 201 217 196 194 182 156 167 225 132 185 236 260 240 196 209 70 53 115 68 25 1 351 338 333 330
228 227 223 218 222 226 219 207 207 208 211 213 216 218 225 228 228 227 221 210 202 167 173 201 202 200 223 227 227 225 230 202 188 188 190 152 186 196 222 226 197 219 152 177 264 16 163 342 350 343 337 333 328 322
232 226 219 215 217 223 219 206 203 205 207 210 213 216 221 228 225 223 217 212 209 207 169 149 179 208 216 216 218 225 223 213 185 178 165 222 205 172 72 24 247 190 196 171 213 51 241 314 330 330 326 324 323 324
232 224 217 210 213 218 215 205 200 202 203 205 209 212 216 216 210 193 203 208 202 197 185 115 183 178 196 203 204 205 206 203 199 202 211 227 219 195 140 217 282 165 110 103 85 351 329 321 324 331 323 321 320 323
231 220 209 208 209 211 213 202 196 197 199 200 202 205 210 209 203 197 206 169 169 171 168 114 159 171 180 180 178 174 186 193 200 211 236 264 201 221 127 232 142 162 144 28 343 336 321 326 318 319 318 318 321 322
230 216 209 206 205 204 208 198 191 192 192 191 190 193 194 194 188 183 179 161 160 178 190 127 226 159 180 171 177 168 171 182 187 220 257 258 229 223 244 183 109 71 222 302 320 322 315 315 317 321 324 326 328 324
228 215 204 201 200 198 199 191 185 184 183 175 172 174 176 186 192 200 188 195 196 189 178 140 141 206 157 144 131 138 174 72 220 188 161 287 285 227 169 125 94 22 328 312 316 317 320 322 325 329 329 327 326 323
220 206 198 197 193 192 192 180 175 175 171 165 163 162 173 171 158 143 151 174 163 157 118 112 120 142 144 154 106 133 118 138 158 259 307 125 262 199 123 77 33 354 339 329 322 324 327 324 326 326 326 324 325 323
218 202 196 194 187 187 183 172 172 170 166 160 156 139 148 146 152 171 123 118 137 118 163 117 140 135 151 123 156 146 158 252 76 270 132 299 270 189 122 360 349 343 335 327 317 313 316 321 328 330 331 329 327 324
214 197 193 189 185 184 171 171 172 168 164 167 148 132 140 168 163 97 313 313 184 208 164 148 134 115 121 131 133 132 128 72 233 336 65 274 252 134 15 348 343 340 333 326 322 318 322 326 332 330 330 329 327 325
207 194 190 184 183 173 168 169 171 176 163 137 101 122 137 177 48 170 197 253 269 175 175 160 120 118 116 130 86 101 90 222 35 41 242 236 181 352 349 342 335 335 332 326 322 321 322 325 329 328 326 327 324 321
192 192 185 180 173 167 165 171 175 175 144 120 143 138 183 202 242 188 178 161 152 161 155 142 115 109 112 82 63 94 210 67 40 319 236 234 206 335 332 331 328 330 331 325 321 319 319 322 324 323 324 325 322 319
193 191 183 171 166 164 167 171 173 163 147 141 162 197 191 175 141 153 139 129 138 146 142 117 86 100 57 97 48 119 81 262 211 230 219 353 330 323 323 326 325 326 325 321 318 318 318 320 318 318 322 323 321 318
175 169 168 165 163 165 164 168 166 161 160 165 184 118 142 126 139 154 151 142 147 145 129 118 112 74 22 121 126 210 148 225 225 210 323 328 325 327 330 332 329 327 324 321 320 317 316 317 318 319 320 321 319 318
175 159 163 162 163 164 167 155 147 143 170 199 170 179 151 151 168 159 162 155 154 151 147 135 110 181 116 59 256 195 210 209 177 306 317 328 335 340 339 334 332 330 325 321 315 313 315 318 319 319 320 322 319 316
165 157 160 160 162 160 146 153 137 144 163 172 172 164 155 153 163 158 162 160 154 156 149 158 127 130 196 183 241 230 230 266 306 315 325 331 329 327 322 322 325 325 322 315 314 315 318 320 321 322 321 321 317 317
156 156 162 163 157 142 123 128 117 126 119 139 141 148 147 156 169 167 164 163 158 157 141 144 103 192 230 216 244 292 287 304 308 304 304 309 317 325 324 315 315 319 319 320 319 320 321 321 321 322 323 323 319 321
154 160 161 152 148 119 95 99 129 125 143 147 143 139 143 152 156 162 162 158 154 148 146 160 211 212 221 306 305 299 298 301 296 299 302 309 307 321 322 317 318 321 321 324 324 324 324 325 327 327 327 325 324 324
145 151 152 151 127 87 97 124 118 112 129 124 140 135 120 138 137 156 160 163 170 194 209 214 234 260 291 303 301 297 298 302 302 304 311 312 316 316 319 320 321 326 327 326 325 327 329 329 329 329 329 328 328 328
145 157 141 146 94 87 87 94 121 118 112 135 130 109 121 124 138 154 171 186 217 229 224 239 252 254 298 317 311 300 307 306 306 309 307 307 310 317 323 325 326 327 325 327 326 328 331 333 333 332 330 330 329 331
140 140 111 83 92 76 117 104 101 93 110 148 124 95 93 115 156 155 188 213 234 245 252 257 249 250 281 312 318 306 301 306 306 305 305 306 312 320 320 323 324 324 322 327 328 330 332 335 335 335 335 334 335 335
133 102 81 80 84 110 141 106 105 109 107 94 99 90 117 123 150 178 219 239 240 244 247 250 253 257 263 284 298 307 317 307 301 301 305 310 316 318 319 320 322 322 319 326 331 334 338 339 341 341 339 338 337 335
95 65 98 80 124 122 107 115 90 81 106 149 96 111 150 145 86 123 225 256 251 255 263 257 256 265 277 279 289 303 312 306 301 304 313 316 315 313 313 316 326 333 328 335 336 338 341 342 341 343 343 341 338 336
79 68 97 148 156 123 158 129 152 135 126 117 86 123 121 103 112 224 229 233 241 242 254 240 246 282 283 288 297 303 306 306 304 309 314 314 313 310 314 322 332 340 333 336 335 336 338 339 340 341 341 343 343 342
106 113 96 100 119 119 98 83 107 103 113 147 161 139 112 140 224 245 232 231 237 255 241 238 268 280 292 296 298 303 302 300 304 306 308 307 307 306 311 318 323 325 325 328 329 329 330 332 333 334 334 338 343 343
109 138 134 137 109 88 112 99 136 168 153 147 140 159 170 189 218 206 218 234 241 234 240 273 295 302 300 298 298 296 296 299 299 303 305 306 310 310 311 315 317 317 318 321 323 323 323 323 325 327 330 333 337 337
81 123 113 66 83 98 138 150 182 157 153 164 156 172 203 208 239 246 254 270 278 282 293 300 301 299 296 293 291 292 291 298 306 307 307 310 316 315 315 314 313 314 315 315 318 318 319 320 322 324 325 325 328 330
120 116 95 87 97 170 139 153 145 158 164 168 178 187 208 236 254 266 273 287 299 303 302 301 298 292 289 281 275 284 306 308 307 303 307 311 313 315 315 315 315 316 316 317 317 319 320 320 320 322 325 328 329 330
132 101 88 87 103 124 148 142 146 164 178 197 215 231 248 263 267 277 289 296 299 300 301 299 293 282 272 281 300 311 313 304 302 305 307 310 312 315 317 318 318 317 317 318 319 320 322 322 323 325 327 330 330 330
119 104 125 110 106 127 137 154 151 165 187 203 222 239 255 267 273 289 283 289 292 298 296 291 280 265 264 286 313 313 309 310 309 309 311 311 313 316 318 319 318 317 318 319 319 321 324 325 326 329 329 329 330 332
92 90 90 99 114 133 134 125 127 122 195 207 227 256 268 267 250 260 267 275 289 293 287 271 260 259 261 300 313 312 316 317 315 313 312 310 313 316 317 318 320 321 321 322 323 326 329 330 330 330 331 332 333 333
Wind_Speed_850mb
99 89 79 71 62 62 62 60 56 52 47 42 37 32 29 25 24 24 22 25 25 12 20 23 20 13 16 15 9 19 10 4 5 5 7 6 6 8 2 6 10 13 13 9 4 2 16 22 5 6 11 30 39 44
116 95 85 75 68 63 64 64 60 55 50 44 39 34 30 28 26 25 24 24 25 15 9 22 23 23 22 17 14 31 5 10 18 8 1 6 3 2 5 7 6 5 12 8 17 8 9 29 27 20 28 32 37 52
123 105 91 79 72 66 65 68 64 59 52 46 41 35 32 29 27 26 24 23 24 16 9 16 16 22 22 22 24 12 12 15 14 11 14 5 6 8 6 11 3 8 10 5 5 6 16 22 26 38 46 50 58 63
120 112 99 86 79 70 67 73 69 62 55 49 42 37 33 29 26 25 25 25 26 10 9 10 18 15 19 23 24 27 17 16 13 15 8 5 4 18 5 3 6 5 11 6 8 5 4 17 41 49 55 60 64 68
121 119 104 90 81 72 68 76 71 64 58 51 43 36 30 27 23 23 23 24 27 17 8 14 18 15 15 16 17 20 19 19 14 8 6 5 6 8 1 2 6 9 6 4 4 2 4 25 40 47 56 64 70 76
118 121 109 96 86 78 70 78 75 67 60 51 42 35 30 26 22 20 13 19 22 22 6 4 9 9 9 10 13 15 18 18 14 8 7 8 8 7 4 6 2 11 15 13 4 20 28 37 42 56 64 73 75 76
120 129 112 103 92 82 72 79 78 68 59 51 43 37 32 28 26 19 8 16 21 20 11 11 6 10 14 12 11 11 16 11 11 7 6 4 5 9 3 5 12 19 13 10 17 33 37 38 60 63 64 68 67 71
130 130 120 108 99 86 75 81 79 69 59 51 41 35 29 23 20 18 16 17 15 9 7 9 2 6 12 7 6 9 10 12 8 3 4 2 4 7 7 9 17 13 4 13 25 34 43 52 56 61 63 71 74 76
119 137 128 116 102 89 78 82 77 68 60 51 45 31 22 15 14 17 16 11 14 9 8 7 9 7 13 8 7 6 7 2 3 4 2 3 3 8 8 23 11 5 11 26 35 42 46 51 60 61 65 70 69 73
133 136 119 120 106 89 81 83 77 68 63 54 44 18 12 14 19 16 9 7 5 4 4 6 10 3 8 10 6 6 4 2 3 4 7 3 6 5 26 16 16 17 24 31 40 48 55 55 57 56 62 67 66 69
136 136 127 123 106 95 93 91 84 77 65 55 22 12 24 27 11 7 5 4 2 3 4 7 8 11 7 5 7 3 6 0 3 6 4 3 6 13 11 16 24 28 29 35 37 42 43 46 57 61 64 65 65 66
141 137 130 126 107 99 102 98 94 88 57 40 22 39 28 9 5 6 2 3 1 8 12 10 11 10 10 6 5 4 6 4 6 7 5 6 6 29 12 24 35 41 42 45 45 46 46 50 58 65 68 74 74 74
145 136 140 126 112 111 107 101 89 75 61 50 14 12 12 6 5 15 13 7 2 19 22 19 11 9 9 5 11 4 5 5 2 5 6 6 23 12 37 43 48 52 53 54 53 49 53 57 65 70 75 79 79 78
148 136 134 126 118 120 111 100 81 73 52 14 15 8 9 6 11 9 8 9 14 19 41 30 18 8 8 8 3 6 1 3 4 3 9 6 13 38 51 57 58 63 62 59 58 56 59 66 75 79 82 84 83 83
141 135 131 120 127 119 108 88 81 75 22 13 16 13 11 12 8 21 27 28 27 50 40 23 16 7 8 7 4 6 2 6 9 7 5 14 36 42 49 55 61 66 66 62 58 62 67 79 83 88 91 90 84 77
153 137 126 130 126 114 101 93 89 44 23 13 13 11 19 15 12 26 29 45 58 47 27 11 9 7 1 5 5 11 9 11 6 9 17 34 44 48 54 59 63 63 61 64 68 69 78 84 84 90 93 86 79 78
161 118 144 133 122 114 103 88 54 14 16 11 9 17 24 12 28 35 49 49 57 38 7 10 8 9 12 5 5 8 10 6 6 21 25 33 39 45 47 51 55 62 69 72 71 84 87 85 87 87 85 82 79 76
110 145 143 140 136 118 87 52 18 12 9 9 13 30 24 20 45 50 46 63 39 20 19 8 18 6 9 10 7 10 21 17 32 31 29 28 34 41 50 56 63 67 71 76 80 81 83 82 81 81 79 77 76 80
153 158 152 144 120 84 20 11 12 11 6 13 23 37 20 34 49 53 57 59 30 30 24 17 9 6 7 16 14 23 29 39 40 34 30 35 43 53 59 57 60 68 75 77 76 75 73 74 76 73 70 68 75 80
164 158 152 116 97 32 15 13 17 9 11 14 27 30 28 27 45 50 61 43 43 21 9 7 14 13 14 21 32 39 42 41 42 48 53 54 51 60 64 61 66 74 73 70 71 72 76 76 70 69 69 68 71 76
156 148 125 113 55 25 16 15 11 12 24 14 37 25 21 40 36 38 37 43 13 12 12 21 29 23 20 36 38 40 41 40 44 47 53 52 52 64 63 64 70 63 68 72 74 74 69 68 69 69 70 70 70 69
126 136 110 67 18 14 16 11 20 22 10 23 21 15 21 14 16 20 29 13 12 20 26 32 32 19 16 26 32 36 37 39 35 41 47 50 59 63 67 66 63 69 68 65 65 66 67 66 68 69 70 70 69 69
121 96 33 16 14 12 12 14 9 8 9 13 14 10 8 9 16 31 13 13 21 42 44 40 33 29 22 28 36 39 41 40 47 51 52 54 57 62 61 56 61 63 65 61 60 62 65 66 67 69 70 71 75 77
77 20 12 11 12 9 14 6 9 13 12 6 5 8 4 10 22 8 5 13 39 34 33 32 27 32 37 39 41 40 45 51 54 53 49 53 61 53 53 55 50 46 50 55 58 62 63 66 68 72 73 75 75 76
22 8 14 11 10 13 8 5 6 8 6 4 8 5 7 10 5 2 6 14 27 29 26 26 29 31 44 49 49 49 51 50 51 51 49 53 50 52 51 46 40 39 44 49 53 59 62 66 68 70 73 73 74 75
13 6 7 12 10 9 10 10 9 10 8 6 5 12 8 7 6 9 9 16 19 20 22 31 28 30 39 47 54 53 54 50 48 50 48 41 46 47 48 47 45 40 45 47 52 57 60 63 66 69 71 71 72 75
10 4 8 12 18 25 15 16 12 11 7 10 9 9 6 7 11 12 16 20 22 19 19 24 29 34 41 45 50 52 50 45 46 39 38 41 39 38 38 40 40 41 45 46 48 52 59 63 66 68 71 72 72 73
10 14 13 18 17 11 12 8 8 9 9 22 29 8 20 18 12 11 14 16 15 23 29 35 38 43 49 51 49 42 42 37 30 37 39 36 29 31 32 35 40 43 46 48 51 54 56 60 64 67 70 74 75 71
10 30 26 14 13 8 8 10 14 10 28 39 17 8 15 15 17 16 18 17 21 29 39 50 53 51 46 37 32 27 23 26 37 39 37 36 31 29 36 40 45 48 52 57 56 56 59 64 67 70 70 72 73 72
11 16 14 8 7 4 6 13 16 33 30 30 18 11 14 20 23 29 30 36 44 56 55 50 43 34 25 19 15 15 25 34 33 32 37 40 42 43 46 50 53 56 59 62 65 68 67 68 70 71 73 74 75 76
27 11 11 8 7 6 17 19 21 25 24 23 24 22 29 31 37 41 44 52 52 40 30 23 19 15 12 12 14 27 28 27 27 32 37 42 46 50 53 57 60 63 63 64 68 70 71 72 73 75 75 74 74 73
9 7 13 7 6 17 22 14 14 10 11 12 10 18 20 17 15 28 36 29 26 22 20 18 16 13 13 14 28 32 28 30 31 35 42 48 52 54 58 60 59 59 61 63 67 69 70 70 70 70 72 73 73 71
10 13 14 12 9 8 11 11 8 5 7 6 8 10 15 8 12 16 28 27 21 19 18 16 16 13 13 23 28 27 31 33 38 42 47 52 56 58 60 60 59 60 64 66 67 67 66 65 67 68 68 68 67 66
Wind_Direction_850mb
231 234 230 228 228 228 224 222 220 219 220 221 222 226 225 231 230 227 226 222 212 214 191 200 199 186 173 182 151 156 113 210 69 111 136 215 165 223 44 217 187 173 159 207 128 234 278 352 41 90 347 348 347 342
230 226 225 225 228 227 222 220 217 215 217 218 219 223 225 225 229 228 222 215 210 208 190 209 215 217 218 203 198 177 212 169 173 90 43 102 211 103 157 260 320 283 201 181 186 216 41 67 85 27 1 340 331 329
229 224 220 222 226 227 220 215 212 213 215 216 218 221 226 226 231 231 229 213 197 202 196 195 207 217 220 218 213 201 217 196 194 182 156 167 225 132 185 236 260 240 196 209 70 53 115 68 25 1 351 338 333 330
228 227 223 218 222 226 219 207 207 208 211 213 216 218 225 228 228 227 221 210 202 167 173 201 202 200 223 227 227 225 230 202 188 188 190 152 186 196 222 226 197 219 152 177 264 16 163 342 350 343 337 333 328 322
232 226 219 215 217 223 219 206 203 205 207 210 213 216 221 228 225 223 217 212 209 207 169 149 179 208 216 216 218 225 223 213 185 178 165 222 205 172 72 24 247 190 196 171 213 51 241 314 330 330 326 324 323 324
232 224 217 210 213 218 215 205 200 202 203 205 209 212 216 216 210 193 203 208 202 197 185 115 183 178 196 203 204 205 206 203 199 202 211 227 219 195 140 217 282 165 110 103 85 351 329 321 324 331 323 321 320 323
231 220 209 208 209 211 213 202 196 197 199 200 202 205 210 209 203 197 206 169 169 171 168 114 159 171 180 180 178 174 186 193 200 211 236 264 201 221 127 232 142 162 144 28 343 336 321 326 318 319 318 318 321 322
230 216 209 206 205 204 208 198 191 192 192 191 190 193 194 194 188 183 179 161 160 178 190 127 226 159 180 171 177 168 171 182 187 220 257 258 229 223 244 183 109 71 222 302 320 322 315 315 317 321 324 326 328 324
228 215 204 201 200 198 199 191 185 184 183 175 172 174 176 186 192 200 188 195 196 189 178 140 141 206 157 144 131 138 174 72 220 188 161 287 285 227 169 125 94 22 328 312 316 317 320 322 325 329 329 327 326 323
220 206 198 197 193 192 192 180 175 175 171 165 163 162 173 171 158 143 151 174 163 157 118 112 120 142 144 154 106 133 118 138 158 259 307 125 262 199 123 77 33 354 339 329 322 324 327 324 326 326 326 324 325 323
218 202 196 194 187 187 183 172 172 170 166 160 156 139 148 146 152 171 123 118 137 118 163 117 140 135 151 123 156 146 158 252 76 270 132 299 270 189 122 360 349 343 335 327 317 313 316 321 328 330 331 329 327 324
214 197 193 189 185 184 171 171 172 168 164 167 148 132 140 168 163 97 313 313 184 208 164 148 134 115 121 131 133 132 128 72 233 336 65 274 252 134 15 348 343 340 333 326 322 318 322 326 332 330 330 329 327 325
207 194 190 184 183 173 168 169 171 176 163 137 101 122 137 177 48 170 197 253 269 175 175 160 120 118 116 130 86 101 90 222 35 41 242 236 181 352 349 342 335 335 332 326 322 321 322 325 329 328 326 327 324 321
192 192 185 180 173 167 165 171 175 175 144 120 143 138 183 202 242 188 178 161 152 161 155 142 115 109 112 82 63 94 210 67 40 319 236 234 206 335 332 331 328 330 331 325 321 319 319 322 324 323 324 325 322 319
193 191 183 171 166 164 167 171 173 163 147 141 162 197 191 175 141 153 139 129 138 146 142 117 86 100 57 97 48 119 81 262 211 230 219 353 330 323 323 326 325 326 325 321 318 318 318 320 318 318 322 323 321 318
175 169 168 165 163 165 164 168 166 161 160 165 184 118 142 126 139 154 151 142 147 145 129 118 112 74 22 121 126 210 148 225 225 210 323 328 325 327 330 332 329 327 324 321 320 317 316 317 318 319 320 321 319 318
175 159 163 162 163 164 167 155 147 143 170 199 170 179 151 151 168 159 162 155 154 151 147 135 110 181 116 59 256 195 210 209 177 306 317 328 335 340 339 334 332 330 325 321 315 313 315 318 319 319 320 322 319 316
165 157 160 160 162 160 146 153 137 144 163 172 172 164 155 153 163 158 162 160 154 156 149 158 127 130 196 183 241 230 230 266 306 315 325 331 329 327 322 322 325 325 322 315 314 315 318 320 321 322 321 321 317 317
156 156 162 163 157 142 123 128 117 126 119 139 141 148 147 156 169 167 164 163 158 157 141 144 103 192 230 216 244 292 287 304 308 304 304 309 317 325 324 315 315 319 319 320 319 320 321 321 321 322 323 323 319 321
154 160 161 152 148 119 95 99 129 125 143 147 143 139 143 152 156 162 162 158 154 148 146 160 211 212 221 306 305 299 298 301 296 299 302 309 307 321 322 317 318 321 321 324 324 324 324 325 327 327 327 325 324 324
145 151 152 151 127 87 97 124 118 112 129 124 140 135 120 138 137 156 160 163 170 194 209 214 234 260 291 303 301 297 298 302 302 304 311 312 316 316 319 320 321 326 327 326 325 327 329 329 329 329 329 328 328 328
145 157 141 146 94 87 87 94 121 118 112 135 130 109 121 124 138 154 171 186 217 229 224 239 252 254 298 317 311 300 307 306 306 309 307 307 310 317 323 325 326 327 325 327 326 328 331 333 333 332 330 330 329 331
140 140 111 83 92 76 117 104 101 93 110 148 124 95 93 115 156 155 188 213 234 245 252 257 249 250 281 312 318 306 301 306 306 305 305 306 312 320 320 323 324 324 322 327 328 330 332 335 335 335 335 334 335 335
133 102 81 80 84 110 141 106 105 109 107 94 99 90 117 123 150 178 219 239 240 244 247 250 253 257 263 284 298 307 317 307 301 301 305 310 316 318 319 320 322 322 319 326 331 334 338 339 341 341 339 338 337 335
95 65 98 80 124 122 107 115 90 81 106 149 96 111 150 145 86 123 225 256 251 255 263 257 256 265 277 279 289 303 312 306 301 304 313 316 315 313 313 316 326 333 328 335 336 338 341 342 341 343 343 341 338 336
79 68 97 148 156 123 158 129 152 135 126 117 86 123 121 103 112 224 229 233 241 242 254 240 246 282 283 288 297 303 306 306 304 309 314 314 313 310 314 322 332 340 333 336 335 336 338 339 340 341 341 343 343 342
106 113 96 100 119 119 98 83 107 103 113 147 161 139 112 140 224 245 232 231 237 255 241 238 268 280 292 296 298 303 302 300 304 306 308 307 307 306 311 318 323 325 325 328 329 329 330 332 333 334 334 338 343 343
109 138 134 137 109 88 112 99 136 168 153 147 140 159 170 189 218 206 218 234 241 234 240 273 295 302 300 298 298 296 296 299 299 303 305 306 310 310 311 315 317 317 318 321 323 323 323 323 325 327 330 333 337 337
81 123 113 66 83 98 138 150 182 157 153 164 156 172 203 208 239 246 254 270 278 282 293 300 301 299 296 293 291 292 291 298 306 307 307 310 316 315 315 314 313 314 315 315 318 318 319 320 322 324 325 325 328 330
120 116 95 87 97 170 139 153 145 158 164 168 178 187 208 236 254 266 273 287 299 303 302 301 298 292 289 281 275 284 306 308 307 303 307 311 313 315 315 315 315 316 316 317 317 319 320 320 320 322 325 328 329 330
132 101 88 87 103 124 148 142 146 164 178 197 215 231 248 263 267 277 289 296 299 300 301 299 293 282 272 281 300 311 313 304 302 305 307 310 312 315 317 318 318 317 317 318 319 320 322 322 323 325 327 330 330 330
119 104 125 110 106 127 137 154 151 165 187 203 222 239 255 267 273 289 283 289 292 298 296 291 280 265 264 286 313 313 309 310 309 309 311 311 313 316 318 319 318 317 318 319 319 321 324 325 326 329 329 329 330 332
92 90 90 99 114 133 134 125 127 122 195 207 227 256 268 267 250 260 267 275 289 293 287 271 260 259 261 300 313 312 316 317 315 313 312 310 313 316 317 318 320 321 321 322 323 326 329 330 330 330 331 332 333 333